Satellite-Ground Cal/Val Region Overpasses Predictions

Prediction of Satellite NPP Overpassing Cal/Val Region: PacNW

Region Location: (Latitude: 10.00, Longitude: 139.50) to (Latitude: 22.70, Longitude: 165.60).

Table of predicted overpasses for the next 14.0 days since TLE Epoch: 4/6/2017
Interval Starting Time Starting Location Ending Time Ending Location
1 04/07/2017 02:19:57 ( 10.02, 164.70) 04/07/2017 02:23:32 ( 22.64, 161.70)
2 04/07/2017 14:51:51 ( 22.65, 161.93) 04/07/2017 14:55:26 ( 10.03, 158.93)
3 04/08/2017 03:42:25 ( 10.03, 144.08) 04/08/2017 03:46:00 ( 22.65, 141.08)
4 04/08/2017 14:34:05 ( 18.19, 165.59) 04/08/2017 14:36:24 ( 10.03, 163.68)
5 04/08/2017 16:14:18 ( 22.70, 141.32) 04/08/2017 16:16:26 ( 15.19, 139.50)
6 04/09/2017 03:23:24 ( 10.04, 148.84) 04/09/2017 03:26:59 ( 22.66, 145.83)
7 04/09/2017 15:55:17 ( 22.69, 146.08) 04/09/2017 15:58:53 ( 10.02, 143.06)
8 04/10/2017 03:04:23 ( 10.04, 153.59) 04/10/2017 03:07:58 ( 22.66, 150.59)
9 04/10/2017 15:36:15 ( 22.69, 150.83) 04/10/2017 15:39:51 ( 10.01, 147.82)
10 04/11/2017 02:45:21 ( 10.05, 158.35) 04/11/2017 02:48:56 ( 22.67, 155.35)
11 04/11/2017 15:17:14 ( 22.68, 155.59) 04/11/2017 15:20:50 ( 10.01, 152.57)
12 04/12/2017 02:26:20 ( 10.05, 163.10) 04/12/2017 02:29:55 ( 22.68, 160.10)
13 04/12/2017 14:58:12 ( 22.68, 160.35) 04/12/2017 15:01:48 ( 10.00, 157.33)
14 04/13/2017 02:10:02 ( 19.69, 165.59) 04/13/2017 02:10:53 ( 22.68, 164.86)
15 04/13/2017 03:48:47 ( 10.01, 142.50) 04/13/2017 03:52:21 ( 22.57, 139.51)
16 04/13/2017 14:39:11 ( 22.67, 165.10) 04/13/2017 14:42:46 ( 10.05, 162.10)
17 04/13/2017 16:20:41 ( 22.67, 139.72) 04/13/2017 16:20:56 ( 21.79, 139.51)
18 04/14/2017 03:29:46 ( 10.01, 147.25) 04/14/2017 03:33:22 ( 22.69, 144.23)
19 04/14/2017 16:01:39 ( 22.66, 144.48) 04/14/2017 16:05:14 ( 10.04, 141.48)
20 04/15/2017 03:10:44 ( 10.02, 152.01) 04/15/2017 03:14:19 ( 22.64, 149.00)
21 04/15/2017 15:42:38 ( 22.66, 149.23) 04/15/2017 15:46:13 ( 10.04, 146.23)
22 04/16/2017 02:51:43 ( 10.03, 156.76) 04/16/2017 02:55:18 ( 22.65, 153.76)
23 04/16/2017 15:23:36 ( 22.65, 153.99) 04/16/2017 15:27:11 ( 10.03, 150.99)
24 04/17/2017 02:32:41 ( 10.04, 161.52) 04/17/2017 02:36:16 ( 22.66, 158.51)
25 04/17/2017 15:04:35 ( 22.64, 158.74) 04/17/2017 15:08:10 ( 10.02, 155.74)
26 04/18/2017 02:14:30 ( 12.98, 165.59) 04/18/2017 02:17:15 ( 22.67, 163.27)
27 04/18/2017 03:55:10 ( 10.05, 140.90) 04/18/2017 03:56:52 ( 16.04, 139.50)
28 04/18/2017 14:45:33 ( 22.69, 163.51) 04/18/2017 14:49:09 ( 10.02, 160.50)
29 04/19/2017 03:36:08 ( 10.06, 145.65) 04/19/2017 03:39:43 ( 22.68, 142.65)
30 04/19/2017 14:29:42 ( 11.48, 165.59) 04/19/2017 14:30:07 ( 10.01, 165.25)
31 04/19/2017 16:08:01 ( 22.68, 142.89) 04/19/2017 16:11:37 ( 10.01, 139.88)
32 04/20/2017 03:17:06 ( 10.01, 150.42) 04/20/2017 03:20:42 ( 22.69, 147.40)


NCC Satellite Cal/Val Overpasses Prediction Service
